Harare Kutsaga, Zimbabwe

4:51 PM CAT on August 17, 2017 (GMT +0200)
Harare Kutsaga

Weather History for FVHA - December, 2012

Change the Weather History Date:

Thursday, December 13, 2012

  Actual Average Record
Temperature  
Mean Temperature 68 °F -  
Max Temperature 75 °F 79 °F 86 °F (1997)
Min Temperature 62 °F 60 °F 59 °F (1997)
Cooling Degree Days 4    
Growing Degree Days 18 (Base 50)    
Moisture  
Dew Point 59 °F    
Average Humidity 73    
Maximum Humidity 88    
Minimum Humidity 43    
Precipitation  
Precipitation 0.00 in 0.24 in - ()
Sea Level Pressure  
Sea Level Pressure 30.12 in    
Wind  
Wind Speed 5 mph ()    
Max Wind Speed 9 mph    
Max Gust Speed -    
Visibility 9.4 miles    
Events Rain    
Averages and records for this station are not official NWS values.
T = Trace of Precipitation, MM = Missing Value Source: Averaged Metar Reports

Daily Weather History Graph

Daily Weather History Graph

Search for Another Location

Airport or City:

Trip Planner

Search our weather history database for the weather conditions in past years. The results will help you decide how hot, cold, wet, or windy it might be!

Date:

Astronomy

Dec. 13, 2012 Rise Set
Actual Time 5:14 AM CAT 6:25 PM CAT
Civil Twilight 4:49 AM CAT 6:49 PM CAT
Nautical Twilight 4:21 AM CAT 7:18 PM CAT
Astronomical Twilight 3:51 AM CAT 7:47 PM CAT
Moon 5:08 AM CAT (12/13) 6:37 PM CAT (12/13)
Length of Visible Light 13h 59m
Length of Day
13h 11m
New Moon, 0% of the Moon is Illuminated
Dec 13
New Moon
Dec 20
First Quarter
Dec 28
Full
Jan 5
Last Quarter
Jan 11
New

Hourly Weather History & Observations

Time (CAT) Temp. Dew Point Humidity Pressure Visibility Wind Dir Wind Speed Gust Speed Precip Events Conditions
1:00 AM 62.6 °F 59.0 °F 88% 30.12 in - East 4.6 mph - N/A   Clear
2:00 AM 63 °F 59 °F 81%  in 19 mi East 5.8 mph - -   Mostly Cloudy
2:00 AM 62.6 °F 59.0 °F 88% 30.12 in - East 5.8 mph - N/A   Clear
4:00 AM 62.6 °F 59.0 °F 88% 30.12 in - ESE 4.6 mph - N/A   Clear
5:00 AM 62.6 °F 59.0 °F 88% 30.15 in 6.2 mi ESE 5.8 mph - N/A   Mostly Cloudy
6:00 AM 62.6 °F 59.0 °F 88% 30.15 in 6.2 mi ESE 6.9 mph - N/A   Mostly Cloudy
7:00 AM 64.4 °F 59.0 °F 83% 30.15 in 6.2 mi ESE 6.9 mph - N/A   Mostly Cloudy
8:00 AM 66 °F 58 °F 69%  in 19 mi ESE 8.1 mph - -   Partly Cloudy
8:00 AM 66.2 °F 59.0 °F 78% 30.18 in 6.2 mi ESE 8.1 mph - N/A   Mostly Cloudy
10:00 AM 71.6 °F 59.0 °F 64% 30.18 in 6.2 mi East 9.2 mph - N/A   Mostly Cloudy
11:00 AM 73.4 °F 59.0 °F 61% 30.15 in 6.2 mi East 8.1 mph - N/A   Mostly Cloudy
12:00 PM 75.2 °F 57.2 °F 53% 30.12 in 6.2 mi East 6.9 mph - N/A   Mostly Cloudy
2:00 PM 74 °F 56 °F 43%  in 19 mi ENE 6.9 mph - -   Mostly Cloudy
2:00 PM 73.4 °F 55.4 °F 53% 30.09 in 6.2 mi ENE 6.9 mph - N/A   Mostly Cloudy
3:00 PM 71.6 °F 60.8 °F 69% 30.06 in 6.2 mi SSE 6.9 mph - N/A   Mostly Cloudy
4:00 PM 71.6 °F 59.0 °F 64% 30.06 in 6.2 mi SE 8.1 mph - N/A   Mostly Cloudy
5:00 PM 71.6 °F 59.0 °F 64% 30.06 in 6.2 mi ESE 5.8 mph - N/A   Mostly Cloudy
6:00 PM 68.0 °F 60.8 °F 78% 30.06 in - ENE 5.8 mph - N/A   Clear
7:00 PM 68.0 °F 59.0 °F 73% 30.09 in 6.2 mi East 5.8 mph - N/A Rain Light Rain
8:00 PM 68 °F 60 °F 69%  in 19 mi East 4.6 mph - - Rain Light Rain
8:00 PM 68.0 °F 60.8 °F 78% 30.12 in - East 4.6 mph - N/A   Clear
9:00 PM 66.2 °F 60.8 °F 83% 30.12 in - East 5.8 mph - N/A   Clear
10:00 PM 66.2 °F 60.8 °F 83% 30.15 in - East 4.6 mph - N/A   Clear